Location: Grandchamp
(47.3639°N, 1.6052°W)
Time: 16:36:11
(UTC+00:00)

Daily predictions for brighter satellites

Satellite Brightness Start Highest point End
(mag) Time Altitude Azimuth Time Altitude Azimuth Time Altitude Azimuth
Cosmos 1869 Rocket 4.4 20:36:39 10° N 20:40:48 37° ENE 20:44:55 10° SE
KORONAS-FOTON 3.7 20:38:47 10° S 20:42:28 66° E 20:46:12 10° NNE
Terra 2.4 20:40:25 10° SE 20:44:53 44° ENE 20:49:22 10° N
SPOT 3 Rocket 4.3 20:41:28 10° SE 20:46:11 38° ENE 20:50:56 10° N
Cosmos 407 Rocket 4.2 20:41:39 10° SW 20:46:48 59° WNW 20:51:56 10° NNE
Cosmos 1842 3.0 20:43:17 10° S 20:46:56 82° E 20:50:36 10° N
Meteor 2-12 Rocket 4.5 20:42:29 10° S 20:48:38 77° E 20:54:48 10° NNE
Genesis I 3.9 20:47:46 10° SW 20:51:13 53° NW 20:54:43 10° NNE
EXPRESS MD2 2.4 20:48:25 10° SW 20:51:33 52° SSE 20:53:48 10° ENE
Cosmos 540 Rocket 3.5 20:47:20 10° NNW 20:52:32 88° WSW 20:57:40 10° SSE
MetOp-B 4.3 20:53:37 10° S 20:58:58 78° WSW 21:04:21 10° NNW
Cosmos 1933 Rocket 3.7 20:57:49 10° N 21:02:15 82° W 21:06:42 10° S
Cosmos 1954 Rocket 4.0 20:57:31 10° SSW 21:02:48 82° ESE 21:08:06 10° NNE
Resurs 01 Rocket 4.0 20:59:47 10° SW 21:03:06 21° W 21:06:27 10° NW
Landsat 4 4.1 21:00:47 11° SE 21:03:57 42° ENE 21:07:15 10° N
COSMOS 2406 3.6 20:58:22 10° SSW 21:04:07 73° WNW 21:09:54 10° NNE
CZ-4C R/B 3.8 21:01:37 10° N 21:05:45 71° WNW 21:09:51 10° SSW
Cosmos 1980 Rocket 3.6 21:01:24 10° NW 21:06:27 34° WSW 21:11:27 10° SSW
Cosmos 2322 Rocket 2.9 21:01:52 10° NNW 21:07:20 45° NE 21:12:36 11° SE
Cosmos 1417 Rocket 4.5 21:06:01 10° N 21:12:15 80° E 21:18:23 10° SSE
Meteor 1-13 Rocket 4.3 21:06:54 10° S 21:12:41 76° E 21:18:23 10° NNE
SeaSat 1 2.6 21:07:51 10° SSE 21:12:45 74° WSW 21:17:41 10° NNW
Cosmos 676 Rocket 4.0 21:07:37 10° SSW 21:12:56 82° ESE 21:18:17 10° NNE
Cosmos 1707 3.2 21:12:23 10° SSW 21:15:55 57° W 21:19:29 10° N
Cosmos 2278 3.8 21:11:52 10° NNW 21:17:37 83° WSW 21:22:56 12° SSE
MOS 1 Rocket 3.7 21:14:17 10° SSE 21:19:37 76° ENE 21:24:56 10° N
USA 234 3.2 21:17:53 10° NE 21:24:27 83° SE 21:31:01 10° SW
Cosmos 1400 Rocket 2.7 21:22:07 10° S 21:25:58 65° E 21:29:48 10° NNE
SL-4 R/B 2.9 21:23:00 10° W 21:26:43 48° N 21:30:42 10° ENE
Cosmos 1455 4.4 21:26:23 10° NE 21:27:37 11° ENE 21:28:50 10° E
Cosmos 2237 4.4 21:25:21 10° NNW 21:31:05 74° WSW 21:36:03 14° SSE
Meteor 2-10 Rocket 3.7 21:26:03 10° N 21:31:42 73° ENE 21:36:16 15° SSE
Cosmos 2219 Rocket 3.4 21:29:26 10° NNW 21:34:33 33° NE 21:39:27 11° ESE
SPOT 5 4.1 21:31:13 10° SSW 21:35:04 32° W 21:39:00 10° NNW
Cosmos 1707 Rocket 4.0 21:31:38 15° SSE 21:35:07 45° E 21:39:22 10° NNE
Landsat 5 3.9 21:31:19 10° NNE 21:35:08 42° E 21:38:05 16° SSE
Cosmos 841 Rocket 3.6 21:31:40 10° NNW 21:36:58 83° WSW 21:41:16 16° SSE
ERS-1 Rocket 3.6 21:32:25 10° S 21:37:19 54° W 21:42:15 10° NNW
ATLAS CENTAUR R/B 1.7 21:35:13 15° S 21:37:37 31° ESE 21:40:49 10° NE
Cosmos 1315 Rocket 4.4 21:39:54 16° ESE 21:41:30 20° E 21:44:24 10° NE
SJ 16-02 2.4 21:39:29 18° SE 21:41:35 26° E 21:45:12 10° NE
ARIANE 5 R/B 4.2 21:39:26 12° ESE 21:42:21 22° ENE 21:45:43 10° NNE
Meteor 1-4 Rocket 3.7 21:41:42 18° ESE 21:42:22 19° E 21:44:36 10° NE
SL-27 R/B 2.7 21:41:51 25° SE 21:42:41 30° ESE 21:45:11 10° NE
Okean 3 4.2 21:41:42 19° SSE 21:44:09 36° E 21:47:58 10° NNE
Spot 2 Rocket 3.9 21:40:09 11° S 21:44:52 61° WSW 21:49:56 10° NNW
Cosmos 1953 3.9 21:42:29 10° NNE 21:45:31 22° ENE 21:47:31 15° ESE
S3M 4.3 21:42:25 10° NNW 21:48:45 68° W 21:54:50 11° S
Aureole 3 3.9 21:49:38 21° SSE 21:51:51 44° E 21:56:15 10° NNE
Cosmos 1300 2.5 21:51:17 10° N 21:54:51 82° W 21:57:03 22° S
Meteor 1-23 Rocket 4.3 21:50:27 10° SSW 21:56:07 81° W 22:01:53 10° N
Cosmos 1733 Rocket 3.0 21:52:08 10° N 21:56:33 82° E 21:59:30 21° SSE
Spot 1 4.2 21:52:33 10° NNE 21:57:03 78° ESE 22:01:14 13° S
Cosmos 1655 Rocket 4.1 21:51:40 10° S 21:58:04 89° W 22:04:31 10° N
Cosmos 2360 Rocket 2.2 21:52:51 10° NNW 21:58:34 82° ENE 22:02:32 20° SSE
H-2A R/B 4.4 21:59:14 12° ESE 22:01:53 20° ENE 22:05:03 10° NNE
Cosmos 839 Rocket 4.4 21:54:50 10° NNW 22:01:54 64° NE 22:06:44 17° SE
GP-B 4.4 21:58:43 10° NNE 22:02:28 27° E 22:04:27 19° ESE
ATLAS 2AS CENTAUR R/B 2.7 21:59:46 10° NW 22:06:40 86° NE 22:11:32 20° SE
Cosmos 2333 Rocket 2.2 22:01:27 10° NNW 22:07:15 87° ENE 22:11:07 22° SSE
SL-16 R/B 2.9 22:02:10 10° NW 22:07:33 45° WSW 22:11:42 16° S
SL-14 R/B 3.5 22:04:47 14° SSW 22:07:56 64° W 22:11:44 10° N
Cosmos 1908 Rocket 4.4 22:04:51 10° N 22:08:54 37° ENE 22:11:05 22° SE
Ariane Rocket 4.0 22:05:08 11° SSW 22:09:36 40° W 22:14:23 10° NNW
Cosmos 2228 Rocket 3.3 22:05:35 13° SSW 22:09:40 72° W 22:14:15 10° N
MetOp-A 4.1 22:07:04 20° S 22:10:44 79° WSW 22:16:02 10° NNW
Cosmos 807 4.3 22:08:48 22° SSW 22:10:51 81° W 22:13:55 10° N
BREEZE-M DEB (TANK) 3.0 22:09:24 10° W 22:11:56 76° NNW 22:17:48 10° ENE
RESURS DK-1 3.0 22:08:53 10° NW 22:12:46 45° WSW 22:14:58 23° S
Atlas Centaur 2 4.1 22:08:48 10° SW 22:14:36 21° S 22:16:48 19° S
Okean 1-7 3.3 22:13:21 26° SSE 22:15:28 49° E 22:19:40 10° NNE
Cosmos 1346 Rocket 3.3 22:15:29 10° NNW 22:19:15 52° W 22:21:26 23° SSW
Cosmos 1833 4.1 22:16:37 13° SSW 22:21:40 72° ESE 22:27:17 10° NNE
BREEZE-M DEB (TANK) 3.7 22:16:17 10° W 22:22:10 40° NNW 22:24:35 10° NE
Cosmos 1850 Rocket 4.3 22:17:09 10° SSW 22:22:22 67° WNW 22:27:34 10° NNE
Terra 3.7 22:18:55 10° SW 22:22:40 23° W 22:26:27 10° NW
Cosmos 1242 Rocket 3.4 22:23:20 22° E 22:23:20 22° E 22:25:24 10° NE
Meteor 1-16 Rocket 4.4 22:25:19 10° NNW 22:31:16 81° W 22:35:01 24° S
Cosmos 2237 Rocket 4.2 22:27:17 10° N 22:31:35 21° NE 22:35:52 10° E
Cosmos 2322 4.3 22:26:54 10° NNW 22:32:27 50° ENE 22:36:10 20° SE
USA 281 3.2 22:28:55 23° SSE 22:33:20 81° ENE 22:39:57 10° NNW
ALOS 2 4.1 22:32:43 17° ESE 22:35:02 26° ENE 22:38:42 10° N
Cosmos 2333 4.3 22:32:38 10° NNW 22:38:23 72° WSW 22:41:39 27° SSE
OPS 8737 4.0 22:35:34 10° NW 22:38:30 84° NE 22:39:12 50° SE
CZ-2C R/B 3.6 22:37:02 10° NNE 22:41:27 74° ESE 22:43:37 30° S
CZ-4C R/B 3.5 22:42:24 15° ESE 22:42:26 15° ESE 22:45:20 10° ENE
Cosmos 968 Rocket 3.9 22:39:21 10° SW 22:44:22 62° WNW 22:49:33 10° NNE
Cosmos 1814 Rocket 4.4 22:44:36 10° NNW 22:49:48 57° WSW 22:52:30 28° S
Cosmos 1703 Rocket 3.5 22:48:43 33° S 22:50:41 76° E 22:55:08 10° NNE
Cosmos 2322 Rocket 3.4 22:46:13 10° NW 22:51:12 33° WSW 22:54:24 19° SSW
Spot 4 4.2 22:49:10 28° SE 22:51:28 53° ENE 22:56:09 10° N
SL-08 R/B 4.4 22:48:53 24° S 22:52:49 90° WNW 22:58:58 10° N
DNEPR-1 R/B 4.3 22:50:00 10° NW 22:56:41 73° WSW 22:59:29 31° SSE
Okean 2 3.7 22:54:53 28° SSW 22:56:50 61° WNW 23:00:49 10° N
EXPRESS MD2 3.2 22:56:53 10° WNW 22:59:01 40° N 22:59:34 32° NE
Cosmos 2297 Rocket 3.6 22:57:54 19° ESE 22:59:16 21° E 23:03:20 10° NE
PSLV R/B 3.7 22:56:58 10° NNE 23:00:59 88° E 23:02:28 38° SSW
Cosmos 1455 2.4 22:58:58 10° NNW 23:02:23 53° W 23:03:18 40° SW
Cosmos 2208 Rocket 4.2 22:58:10 10° NNW 23:03:21 63° ENE 23:05:55 29° SE
Cosmos 1932 4.5 22:59:04 10° SW 23:05:26 84° NW 23:11:45 10° NE
SL-4 R/B 2.8 23:02:02 10° WNW 23:05:56 51° NNE 23:10:05 10° E
USA 234 4.3 23:01:00 10° NE 23:07:13 48° NNW 23:13:26 10° W
COSMOS 2428 2.7 23:07:04 10° NNW 23:12:48 79° ENE 23:15:45 30° SE
CENTAUR R/B 4.4 23:12:45 10° ESE 23:13:49 11° E 23:15:00 10° E
COSMOS 2455 3.4 23:12:16 30° SSE 23:14:23 41° ESE 23:19:59 10° NE
Meteor 1-4 Rocket 4.4 23:13:41 15° WSW 23:15:08 20° WNW 23:17:26 10° NNW
ATLAS CENTAUR R/B 3.1 23:12:13 10° WSW 23:15:16 27° NW 23:18:26 10° NNE
GENESIS II 3.9 23:14:53 56° SSE 23:15:23 64° SE 23:18:59 10° NE
Cosmos 1315 Rocket 4.0 23:15:10 20° SW 23:17:22 36° WNW 23:21:07 10° N
ARIANE 5 R/B 3.3 23:16:54 29° SSW 23:18:30 42° W 23:22:38 10° NNW
Cosmos 2219 Rocket 2.7 23:13:15 10° NW 23:18:41 48° WSW 23:21:08 29° SSW
SJ 16-02 2.8 23:16:10 12° SW 23:19:47 34° WNW 23:23:46 10° N
Cosmos 1953 3.6 23:17:59 10° NNW 23:21:22 30° W 23:22:38 24° SW
PSLV R/B 4.1 23:28:12 10° NNE 23:32:14 41° E 23:33:06 36° SE
Cosmos 304 Rocket 4.4 23:31:07 35° SE 23:32:17 41° ESE 23:36:45 10° NE
Cosmos 1745 Rocket 4.1 23:30:01 27° SSW 23:33:41 74° W 23:40:05 10° N
H-2A R/B 3.1 23:35:13 36° SSW 23:36:30 47° W 23:40:39 10° NNW
GP-B 4.4 23:35:44 10° NNW 23:39:40 32° W 23:41:46 21° SW
Cosmos 2360 Rocket 4.1 23:38:19 10° WNW 23:41:49 17° W 23:44:17 13° SW
Nadezhda 1 Rocket 4.4 23:36:52 10° NNW 23:42:58 53° W 23:46:09 27° SSW
Cosmos 1486 Rocket 3.9 23:41:55 37° S 23:43:59 76° ESE 23:49:12 10° NNE
Cosmos 2181 Rocket 4.2 23:40:14 10° N 23:46:23 60° ENE 23:49:33 29° SSE
Cosmos 1825 3.6 23:47:12 21° E 23:47:26 21° E 23:50:07 10° NE
Cosmos 1782 Rocket 4.4 23:45:15 10° NNW 23:49:16 38° W 23:50:34 30° SW
Cosmos 2333 Rocket 4.2 23:47:21 10° WNW 23:50:43 16° W 23:53:07 13° SW
Cosmos 1408 3.1 23:54:41 36° W 23:54:51 36° WNW 23:57:39 10° N
